{"data":{"norad_id":53924,"intl_designator":"2022-119AQ","name":"STARLINK-5001","alt_names":[],"object_type":"PAYLOAD","status":"ACTIVE","operator":null,"country":"US","launch_date":"2022-09-24","launch_site_code":"AFETR","launch_vehicle":null,"mission":null,"orbit_class":"UNKNOWN","rcs_meters":null,"size_class":null,"mass_kg":null,"dimensions":null,"purposes":["comms"],"wikipedia_slug":null,"has_3d_model":false,"image_url":null,"decayed_at":null,"tle_current":{"epoch":"2026-09-20T22:22:18.947136Z","epoch_age_seconds":49720,"freshness":"FRESH","line1":"1 53924U 22119AQ  26263.93216374 -.00000443  00000+0 -36907-5 0  9994","line2":"2 53924  53.1588 129.0066 0001379 101.2809 258.8345 15.26512598221701","mean_motion":15.26512598,"eccentricity":0.0001379,"inclination_deg":53.1588,"raan_deg":129.0066,"arg_perigee_deg":101.2809,"mean_anomaly_deg":258.8345,"bstar":-3.6907e-6,"rev_number":22170,"period_min":94.33266400072,"perigee_km":485.30054532855,"apogee_km":487.19374247544,"semimajor_km":6864.384143902,"source":"CELESTRAK","updated_at":"2026-09-21T09:00:33.035964Z"}}}